Weather in Spa

Belgium     50°29′32″N   5°51′51″E
temp.,
°C
wind,
m/s
gust,
m/s
humid.,
%
clouds,
%
prec.,
mm/h
press.,
hPa
HPBL,
m
7 march, sun
sun701:00−2e116929 0.0 102921
04:00−2ese11650 0.0 102721
07:00−2se11620 0.0 102721
10:00+3n23450 0.0 1026391
13:00+6nne33490 0.0 1024838
16:00+5n34570 0.0 1023825
19:000nne23810 0.0 102373
22:00−2ene12920 0.0 102421
8 march, mon
mon801:00−3ene12911 0.0 102422
04:00−3ese11900 0.0 102421
07:00−3ene11870 0.0 102421
10:00+3ne246532 0.0 1024569
13:00+6nne336143 0.0 1023997
16:00+5nne3367100 0.0 1022698
19:00+1ne238899 0.0 102250
22:00+1ese1190100 0.0 102222
9 march, tue
tue901:00+1ssw1187100 0.0 102221
04:000ssw1295100 0.0 102137
07:00−2ssw229692 0.0 102142
10:00+1sw369191 0.0 1021297
13:00+3wsw369396 0.3 1020340
16:00+6w358398 0.1 1019676
19:00+4wsw269598 0.4 1020204
22:00+1ssw229687 0.0 102125
10 march, wed
wed1001:00+2ssw259575 0.0 1021177
04:00+2s229586 0.0 102029
07:00+1s239593 0.0 102152
10:00+6ssw497998 0.0 1020746
13:00+8ssw6106999 0.0 1019976
16:00+8ssw71264100 0.0 10161031
19:00+6s61575100 0.1 1014892
22:00+5ssw61790100 2.6 1012874
11 march, thu
thu1101:00+7ssw61792100 4.9 1010942
04:00+8sw71790100 0.1 1007998
07:00+9sw81990100 0.4 10061154
10:00+9w81694100 3.4 10061168
13:00+8wsw91779100 5.0 10071812
16:00+9wsw9186494 0.4 10072332
19:00+6wsw6158194 1.0 10081387
22:00+4wsw7158467 0.1 10101228